{"data":{"norad_id":43765,"intl_designator":"2018-099H","name":"HAWK-A","alt_names":[],"object_type":"PAYLOAD","status":"ACTIVE","operator":null,"country":"US","launch_date":"2018-12-03","launch_site_code":"AFWTR","launch_vehicle":null,"mission":null,"orbit_class":"UNKNOWN","rcs_meters":null,"size_class":null,"mass_kg":null,"dimensions":null,"purposes":["tech_demo"],"wikipedia_slug":null,"has_3d_model":false,"image_url":null,"decayed_at":null,"tle_current":{"epoch":"2026-09-20T02:03:23.338656Z","epoch_age_seconds":54014,"freshness":"FRESH","line1":"1 43765U 18099H   26263.08568679  .00004155  00000+0  16355-3 0  9997","line2":"2 43765  97.3815 314.1004 0032571 312.7755  47.0744 15.25699978427562","mean_motion":15.25699978,"eccentricity":0.0032571,"inclination_deg":97.3815,"raan_deg":314.1004,"arg_perigee_deg":312.7755,"mean_anomaly_deg":47.0744,"bstar":0.00016355,"rev_number":42756,"period_min":94.382907567952,"perigee_km":466.31841435741,"apogee_km":511.05026191831,"semimajor_km":6866.8213381379,"source":"CELESTRAK","updated_at":"2026-09-20T09:00:47.446788Z"}}}